Location: Trois-Rivi�res
(46.3500°N, 72.5500°W)
Time: 20:43:22
(UTC-04:00)

Daily predictions for brighter satellites

Satellite Brightness Start Highest point End
(mag) Time Altitude Azimuth Time Altitude Azimuth Time Altitude Azimuth
Cosmos 1934 Rocket 4.0 19:32:19 10° S 19:38:19 62° E 19:44:18 10° NNE
Cosmos 405 3.9 19:36:26 10° SSW 19:39:54 55° WNW 19:43:23 10° N
Okean 3 Rocket 3.9 19:37:01 10° N 19:41:15 44° ENE 19:45:29 10° SSE
FengYun 1-2 T 4.3 19:39:14 10° SSE 19:44:47 76° ENE 19:50:26 10° NNW
H-2A R/B 2.9 19:45:08 10° SSE 19:48:57 59° ENE 19:52:52 10° N
Spot 2 Rocket 3.6 19:44:35 10° SSE 19:49:37 61° ENE 19:54:40 10° N
Tiangong 1 3.5 19:49:24 10° WSW 19:51:03 14° SSW 19:52:40 10° S
Meteor 1-24 Rocket 3.9 19:47:08 10° NNW 19:52:38 78° W 19:58:17 10° S
Abrixas 2.9 19:50:12 10° WNW 19:52:59 51° SSW 19:55:43 10° SE
Cosmos 2082 Rocket 2.6 19:47:35 10° NNW 19:53:06 47° ENE 19:58:32 10° SE
Cosmos 1076 Rocket 4.0 19:51:05 10° N 19:55:07 39° ENE 19:59:05 10° SE
Helios 1B rocket 3.6 19:52:03 10° NE 19:55:22 23° E 19:58:40 10° SSE
Cosmos 1812 Rocket 3.8 19:52:22 10° SSW 19:56:47 77° W 20:01:11 10° N
Cosmos 1758 3.8 19:54:21 10° SSE 19:58:00 36° E 20:01:42 10° NNE
Lacrosse 5 1.8 19:53:10 10° SW 19:58:13 73° SE 20:03:17 10° NE
Cosmos 990 Rocket 4.1 19:53:26 10° SSW 19:58:41 83° WNW 20:03:58 10° NNE
Cosmos 1821 Rocket 4.4 19:57:31 10° SSW 20:03:53 71° W 20:10:14 10° N
Lacrosse 4 Rocket 3.0 20:02:06 10° WSW 20:05:51 37° NW 20:09:40 10° NNE
Cosmos 1953 2.7 20:02:09 10° SSE 20:05:59 41° E 20:09:49 10° NNE
USA 267 4.2 20:01:27 10° ENE 20:07:22 38° N 20:13:17 10° NW
Envisat 3.7 20:03:11 10° SE 20:07:46 35° ENE 20:12:23 10° N
GP-B 3.6 20:05:29 10° SSE 20:09:33 37° E 20:13:40 10° NNE
USA 186 1.3 20:08:21 16° SE 20:09:50 38° ENE 20:11:56 10° N
Cosmos 1766 Rocket 4.0 20:06:14 10° N 20:10:32 43° ENE 20:14:48 10° SSE
Helios 1A 3.2 20:07:44 10° SSE 20:11:46 51° ENE 20:15:50 10° N
Cosmos 1939 Rocket 3.9 20:09:37 14° ESE 20:12:24 28° ENE 20:15:59 10° N
Cosmos 1271 Rocket 3.8 20:11:56 10° SSE 20:15:17 26° E 20:18:39 10° NE
Resurs 01 Rocket 1.9 20:11:11 10° S 20:15:35 73° WSW 20:20:02 10° NNW
Cosmos 1125 Rocket 3.6 20:11:00 10° S 20:16:00 50° ESE 20:21:03 10° NNE
Cosmos 1048 Rocket 3.9 20:11:40 10° NNW 20:16:48 68° ENE 20:21:53 10° SSE
Cosmos 1766 4.1 20:13:48 10° SSW 20:17:36 55° WNW 20:21:27 10° N
Geosat 4.2 20:13:53 10° NE 20:18:45 48° ESE 20:23:36 10° S
Cosmos 1184 Rocket 4.4 20:19:01 10° NNE 20:21:28 18° ENE 20:21:45 18° ENE
Cosmos 1605 Rocket 4.1 20:15:38 10° S 20:21:55 90° WNW 20:28:21 10° N
Cosmos-2242 3.5 20:20:06 10° SSE 20:24:00 36° E 20:27:55 10° NNE
Cosmos 2100 Rocket 4.4 20:18:08 10° SSE 20:24:02 43° E 20:30:00 10° NNE
Lacrosse 5 rocket 1.5 20:20:41 10° NW 20:24:36 52° NNE 20:26:41 23° E
ERS-1 Rocket 3.9 20:23:22 19° ESE 20:26:02 30° ENE 20:30:22 10° N
Fregat R/B Cluster 11 4.3 20:22:50 10° SSW 20:28:19 52° SE 20:31:36 10° NE
Cosmos 1674 2.6 20:24:59 10° N 20:28:45 61° E 20:31:53 14° SSE
SeaSat 1 3.9 20:25:20 10° S 20:29:53 37° WSW 20:34:28 10° NW
SAR-Lupe-4 3.6 20:31:50 10° S 20:35:25 80° WSW 20:39:01 10° NNW
YAOGAN 6 3.7 20:36:25 26° E 20:36:54 26° ENE 20:40:04 10° N
Cosmos 1743 Rocket 3.9 20:37:47 10° N 20:42:02 44° ENE 20:43:51 29° SE
Meteor 1-21 Rocket 4.4 20:36:59 10° NNW 20:42:49 79° W 20:48:42 10° S
Cosmos 1500 Rocket 4.2 20:39:49 10° N 20:43:46 33° ENE 20:44:37 30° E
Cosmos 2344 4.1 20:36:23 10° SW 20:44:03 69° NW 20:53:08 10° NE
BREEZE-M DEB (TANK) 2.2 20:41:50 10° WNW 20:44:05 55° NNE 20:44:41 42° ENE
CZ-2D R/B 4.4 20:40:40 10° S 20:44:22 44° W 20:48:07 10° NNW
Meteor 1-29 2.9 20:41:10 10° NNE 20:44:37 61° E 20:48:04 10° S
Cosmos 1802 Rocket 4.1 20:39:19 10° SSE 20:45:09 48° E 20:51:04 10° NNE
OE (NEXTSAT) 4.3 20:43:24 10° WSW 20:46:59 71° SSE 20:48:00 43° E
Cosmos 1356 Rocket 4.1 20:43:42 10° N 20:47:29 33° ENE 20:47:56 32° E
CZ-3B DEB 2.9 20:38:46 10° WSW 20:48:26 63° NNW 20:52:39 11° NE
Cosmos 1805 4.4 20:45:53 10° SSW 20:49:38 46° WNW 20:53:25 10° N
Cosmos 1818 4.5 20:44:32 10° NW 20:49:44 46° WSW 20:54:41 11° S
COSMOS 2487 3.1 20:47:28 10° NNW 20:50:58 55° WSW 20:53:15 20° S
Cosmos 2251 Rocket 3.9 20:46:35 10° N 20:51:42 45° ENE 20:53:40 32° ESE
Cosmos 2061 Rocket 4.0 20:52:18 10° S 20:58:38 67° E 21:05:01 10° NNE
Timation 2 Rocket 4.1 20:54:39 10° NNW 21:01:00 71° WSW 21:05:26 19° SSE
Meteor 1-4 Rocket 3.9 20:57:45 10° SW 21:01:02 39° WNW 21:04:21 10° N
Cosmos 1626 4.4 20:58:38 10° NNE 20:59:34 13° NE 20:59:34 13° NE
Cosmos 1833 Rocket 3.1 20:55:49 10° NNW 21:01:23 62° WSW 21:05:39 17° S
Cosmos 1408 Rocket 4.2 20:59:01 10° NNW 21:03:24 55° W 21:07:46 10° S
Cosmos 1470 2.8 21:01:35 10° S 21:05:34 82° W 21:09:34 10° N
Cosmos 2278 Rocket 3.7 21:04:38 10° WSW 21:09:52 37° NW 21:15:09 10° NNE
Cosmos 1340 Rocket 3.1 21:06:27 10° NNW 21:10:28 67° W 21:12:09 32° S
CZ-4B DEB 4.2 21:12:04 24° SW 21:13:21 34° W 21:16:14 10° NNW
Cosmos 372 Rocket 4.2 21:08:34 10° SSW 21:13:40 71° WNW 21:18:51 10° NNE
Cosmos 1733 3.5 21:10:59 11° SSW 21:14:37 66° W 21:18:30 10° N
Cosmos 1459 Rocket 4.0 21:09:19 10° S 21:15:36 86° W 21:21:48 10° N
USA 215 3.3 21:09:19 10° ENE 21:15:44 55° SE 21:22:07 10° SSW
Cosmos 2058 3.6 21:14:21 10° N 21:17:39 39° NE 21:17:39 39° NE
Cosmos 1842 Rocket 3.4 21:18:20 64° ESE 21:18:31 64° E 21:22:53 10° NNE
ATLAS 5 CENTAUR R/B 1.7 21:16:09 10° SW 21:20:53 83° SE 21:26:06 10° NE
Cosmos 2173 Rocket 4.0 21:15:11 10° S 21:21:21 81° W 21:27:41 10° N
ISS -1.0 21:18:25 10° SW 21:18:25 10° SW 21:18:25 10° SW
Cosmos 2151 3.0 21:19:17 10° N 21:23:14 61° NE 21:23:14 61° NE
USA 245 4.5 21:24:27 47° ESE 21:25:28 52° ENE 21:31:32 10° N
Cosmos 2297 4.4 21:19:57 10° SW 21:25:34 56° WNW 21:31:15 10° NNE
Cosmos 1867 4.0 21:22:39 10° SW 21:28:02 62° NW 21:33:30 10° NNE
Helios 1B rocket 4.1 21:27:00 10° N 21:30:46 34° WNW 21:34:30 10° SW
YAOGAN 11 4.0 21:32:44 77° E 21:32:52 78° ENE 21:37:26 10° NNW
Meteor 1-11 4.1 21:29:38 10° N 21:35:15 87° ENE 21:36:37 54° SSE
Cosmos 494 Rocket 3.9 21:31:18 10° NNW 21:36:26 79° WSW 21:37:19 61° S
Cosmos 2082 Rocket 3.8 21:32:04 10° NW 21:36:57 30° WSW 21:41:10 13° SSW
SL-14 R/B 3.6 21:34:33 10° NNW 21:38:04 62° WNW 21:38:04 62° WNW
Cosmos 1328 4.4 21:37:13 10° NNW 21:41:07 53° W 21:41:11 53° W
Lacrosse 5 3.3 21:36:55 10° W 21:41:35 35° NNW 21:45:24 14° NE
SPOT 5 2.9 21:45:02 74° ESE 21:45:24 79° ENE 21:50:45 10° NNW
Meteor 1-16 Rocket 4.3 21:44:17 26° SSW 21:47:44 80° W 21:53:42 10° N
USA 267 3.3 21:48:09 51° E 21:49:48 68° NNE 21:56:18 10° NW
MetOp-A 4.1 21:50:03 65° SSW 21:50:48 78° WSW 21:56:12 10° NNW
ARGOS 3.0 21:51:33 79° E 21:51:38 79° ENE 21:57:01 10° NNW
H-2A R/B 2.5 21:52:51 49° NE 21:52:51 49° NE 21:57:21 10° N
Cosmos 2016 Rocket 4.3 21:47:02 10° SSW 21:53:10 64° W 21:59:19 10° N
Meteor 2-1 Rocket 4.1 21:58:47 75° ENE 21:58:47 75° ENE 22:04:08 10° NNE
Cosmos 1725 Rocket 4.0 21:59:08 44° SSW 22:01:18 79° W 22:07:31 10° N
Terra 3.3 22:04:45 27° NNE 22:04:45 27° NNE 22:07:23 10° N
Lacrosse 5 rocket 3.4 22:00:24 10° WNW 22:02:25 21° W 22:02:25 21° W
ERS-1 Rocket 4.1 22:03:21 33° SW 22:04:40 39° W 22:09:24 10° NNW
Tsikada Rocket 4.4 22:10:00 10° NNW 22:16:03 57° W 22:17:28 47° SW
Cosmos 2221 4.4 22:21:13 26° N 22:21:13 26° N 22:23:11 10° N
H-2A R/B 4.0 22:23:36 24° N 22:23:36 24° N 22:25:18 10° N
Cosmos 2369 Rocket 3.7 22:34:54 27° NNE 22:34:54 27° NNE 22:37:21 10° NNE
SPOT 1/Viking Rocket 4.4 22:37:05 47° WNW 22:37:05 47° WNW 22:41:14 10° NNW
Cosmos 2227 Rocket 4.3 22:40:32 10° N 22:43:37 16° NE 22:43:37 16° NE
USA 215 3.7 22:52:24 10° NE 22:58:48 58° NNW 23:05:10 10° WSW
CZ-3B DEB 4.0 22:56:32 10° WNW 22:59:39 21° NW 22:59:39 21° NW
Cosmos 1943 Rocket 4.3 23:07:54 18° NNE 23:07:54 18° NNE 23:09:16 10° NNE
ATLAS 5 CENTAUR R/B 4.0 23:02:15 10° W 23:06:16 24° NNW 23:10:37 10° NNE
Lacrosse 5 4.1 23:21:38 10° NW 23:24:38 22° NNW 23:24:38 22° NNW
CZ-4C R/B 4.2 23:31:18 22° NNE 23:31:18 22° NNE 23:33:34 10° NE
H-2A R/B 4.2 23:33:28 21° WNW 23:33:28 21° WNW 23:36:11 10° NW
Terra 4.4 23:43:39 16° NW 23:43:39 16° NW 23:44:55 10° NW
